Starlink 4683

operational
NORAD ID: 53712 Int'l Des: 2022-107 Owner: SPXS Country: US Constellation: starlink
LEOCIRCULAR

Starlink 4683について

説明を読み込み中...

リアルタイム位置

3D地球を読み込み中...

次回通過

高度履歴

Altitude vs Time

uPlot chart will show altitude changes over time

軌道要素

1 53712U 22107N 26035.52376169 .00000283 00000-0 35903-4 0 9992
2 53712 53.2182 37.5539 0001433 87.6342 272.4815 15.08837570189498
Epoch: Feb 4, 2026 • Age: 21 hours

現在のステータス

高度 539.7 km
速度 7.60 km/s
衛星直下点 17.00°N, 131.3°E
打ち上げ日 Sep 5, 2022
運用期間 3.4 years
タイプ internet

技術仕様

分類 Payload
質量 305.00 kg
乾燥質量 290.00 kg
総質量 305.00 kg
長さ 0.20 m
直径 2.80 m
スパン 9.00 m
形状 Box + pan
製造者 SPXS
バスタイプ Starlink
フェーズステータス In Orbit
所有者/国 SPXS/US

大規模コンステレーション

Loading constellations...